[Date Prev][Date Next][Thread Prev][Thread Next] - [Date Index][Thread Index][Author Index]

2 Line ISS Keps 11-01



ISS
1 25544U 98067A   01305.20608796  .00063083  00000-0  79017-3 0  6744
2 25544  51.6397 119.6272 0008759 273.6057  63.5472 15.59126326168451


----
Via the sarex mailing list at AMSAT.ORG courtesy of AMSAT-NA.
To unsubscribe, send "unsubscribe sarex" to Majordomo@amsat.org



AMSAT Top AMSAT Home